Content
SEND FEEDBACK

Daily
Averages
Monthly
Summary
India

CHENNAI, INDIA


Home > Asia > India
Elevation: 52 feet     Latitude: 13 00N     Longitude: 080 11E

WEATHER
 
SELECT A DAY
Number of Records: 205,788;   Date Range: 7/1/96 - 10/23/14
 
SHARE

PRINT THIS DATA

[ ← Previous Day ]
WEATHER ALMANAC - JULY 16, 2013
[ Next Day → ]
[ °C ]   °F
Weather ElementAverageHighLow
Temperature83.7 °F91.4 °F (3:40 pm)77 °F (12:40 am)
Dewpoint74.6 °F78 °F (5:30 pm)71.6 °F (12:40 pm)
Humidity74.5 %94 % (12:40 am)52 % (3:40 pm)
Barometer29.63 in29.72 in (11:30 am)29.56 in (3:40 pm)
Wind Speed7.3 mph13.8 mph (7:40 pm)
Weather ElementAverage
Visibility3.2 mi
Wind DirectionSSW (218.6 °)

Weather ElementTotal
Precipitation---
Cooling Degree Days19.2 (Base 65)
Growing Degree Days34.2 (Base 50)
Averaged from 53 records on July 16, 2013
WEATHER CONDITIONS BREAKOUT
WIND DIRECTION BREAKOUT
WEATHER BY HOUR - JULY 16, 2013
[ °C ]   °F
Local TimeTemperatureDewpointHumidityBarometerVisibilityWind DirectionWind SpeedGust SpeedPrecipitationEventsConditions
12:40 AM77.0 °F75.2 °F94 %29.62 in3.1 miSW (220°)3.5 mphLight Drizzle
1:10 AM77.0 °F75.2 °F94 %29.62 in3.1 miSW (220°)3.5 mphLight Drizzle
1:40 AM77.0 °F75.2 °F94 %29.62 in3.1 miSW (220°)3.5 mphLight Drizzle
2:10 AM77.0 °F75.2 °F94 %29.62 in3.1 miWest (270°)3.5 mphHaze
2:30 AM78.0 °F76.0 °F92 %29.65 in2.0 miSW (230°)3.5 mphPartly Cloudy
2:40 AM77.0 °F75.2 °F94 %29.62 in3.1 miSW (230°)8.1 mphHaze
3:10 AM77.0 °F75.2 °F94 %29.62 in3.1 miSW (230°)5.8 mphHaze
3:40 AM78.8 °F75.2 °F89 %29.62 in3.1 miSW (220°)4.6 mphHaze
4:10 AM78.8 °F75.2 °F89 %29.62 in3.1 miSW (220°)4.6 mphHaze
4:40 AM78.8 °F75.2 °F89 %29.62 in3.1 miWSW (240°)4.6 mphHaze
5:10 AM78.8 °F75.2 °F89 %29.62 in3.1 miWSW (240°)3.5 mphHaze
5:30 AM78.0 °F76.0 °F91 %29.67 in2.0 miCalmPartly Cloudy
5:40 AM78.8 °F75.2 °F89 %29.65 in3.1 miWNW (290°)3.5 mphHaze
6:10 AM78.8 °F75.2 °F89 %29.65 in2.5 miWSW (240°)3.5 mphHaze
6:40 AM78.8 °F75.2 °F89 %29.65 in2.5 miSW (220°)5.8 mphHaze
7:10 AM80.6 °F75.2 °F84 %29.65 in2.5 miSW (230°)4.6 mphHaze
7:40 AM80.6 °F75.2 °F84 %29.65 in2.5 miWest (260°)4.6 mphHaze
8:10 AM80.6 °F75.2 °F84 %29.68 in2.5 miWest (270°)4.6 mphHaze
8:30 AM81.0 °F76.0 °F80 %29.70 in6.0 miCalmOvercast
8:40 AM82.4 °F75.2 °F79 %29.68 in2.5 miWSW (250°)6.9 mphHaze
9:40 AM84.2 °F73.4 °F70 %29.68 in3.1 miWSW (250°)9.2 mphHaze
10:10 AM86.0 °F75.2 °F70 %29.68 in3.1 miWSW (250°)9.2 mphHaze
10:40 AM86.0 °F73.4 °F66 %29.68 in3.1 miWSW (250°)9.2 mphHaze
11:10 AM86.0 °F73.4 °F66 %29.68 in3.1 miWSW (250°)6.9 mphHaze
11:30 AM86.0 °F76.0 °F65 %29.72 in6.0 miWest (270°)6.7 mphOvercast
11:40 AM87.8 °F73.4 °F62 %29.65 in3.1 miWSW (250°)8.1 mphHaze
12:10 PM87.8 °F73.4 °F62 %29.65 in3.7 miWSW (250°)6.9 mphMostly Cloudy
12:40 PM87.8 °F71.6 °F58 %29.65 in3.7 miSW (230°)11.5 mphMostly Cloudy
1:10 PM87.8 °F71.6 °F58 %29.62 in3.7 miSW (230°)11.5 mphMostly Cloudy
1:40 PM89.6 °F73.4 °F59 %29.62 in3.7 miSW (230°)10.4 mphMostly Cloudy
2:10 PM87.8 °F73.4 °F62 %29.59 in3.7 miSSW (210°)9.2 mphMostly Cloudy
2:30 PM89.0 °F76.0 °F57 %29.63 in6.0 miSW (230°)6.7 mphOvercast
2:40 PM89.6 °F73.4 °F59 %29.59 in3.7 miSSW (210°)8.1 mphMostly Cloudy
3:10 PM89.6 °F71.6 °F55 %29.59 in3.7 miSSW (210°)10.4 mphMostly Cloudy
3:40 PM91.4 °F71.6 °F52 %29.56 in3.7 miSW (220°)9.2 mphMostly Cloudy
4:10 PM89.6 °F71.6 °F55 %29.56 in3.7 miSSW (200°)6.9 mphMostly Cloudy
4:40 PM89.6 °F73.4 °F59 %29.56 in3.7 miSouth (190°)8.1 mphMostly Cloudy
5:10 PM89.6 °F73.4 °F59 %29.56 in3.7 miSouth (170°)5.8 mphMostly Cloudy
5:30 PM88.0 °F78.0 °F64 %29.62 in6.0 miSSE (160°)4.5 mphPartly Cloudy
5:40 PM89.6 °F73.4 °F59 %29.59 in3.7 miSouth (170°)4.6 mphMostly Cloudy
6:10 PM86.0 °F75.2 °F70 %29.59 in2.5 miSouth (170°)10.4 mphHaze
6:40 PM86.0 °F73.4 °F66 %29.59 in2.5 miSSE (160°)11.5 mphHaze
7:10 PM86.0 °F73.4 °F66 %29.59 in2.5 miSSE (150°)11.5 mphHaze
7:40 PM86.0 °F73.4 °F66 %29.62 in2.5 miSouth (170°)13.8 mphHaze
8:10 PM84.2 °F75.2 °F74 %29.62 in2.5 miSSE (160°)13.8 mphHaze
8:30 PM84.0 °F78.0 °F76 %29.67 in2.0 miSouth (180°)11.2 mphPartly Cloudy
8:40 PM84.2 °F77.0 °F79 %29.65 in2.5 miSouth (180°)11.5 mphHaze
9:10 PM84.2 °F77.0 °F79 %29.65 in2.5 miSouth (170°)11.5 mphHaze
9:40 PM84.2 °F77.0 °F79 %29.65 in2.5 miSouth (180°)8.1 mphHaze
10:40 PM84.2 °F77.0 °F79 %29.62 in2.5 miSW (220°)9.2 mphHaze
11:10 PM84.2 °F73.4 °F70 %29.62 in2.5 miSW (230°)12.7 mphHaze
11:30 PM84.0 °F76.0 °F71 %29.66 in2.0 miSW (230°)5.8 mphScattered Clouds
11:40 PM80.6 °F71.6 °F74 %29.62 in2.5 miSW (220°)11.5 mphHaze
Hourly data recorded from VOMM, located miles away from Chennai, India







STORIES FROM OUR PARTNERS